FW1957 Weather Reports


time (UTC)temp
F
wind
direction
speed
knots
gust
knots
rain 1hr
in
rain 24hr
in
rain mn
in
humidity
%
barometer
mb
20260507185713 52 199 6.1 11.3 0.11 0.50 0.50 93 1013.5
20260507185206 52 169 6.1 11.3 0.12 0.50 0.50 93 1013.4
20260507184705 53 199 5.2 11.3 0.12 0.48 0.48 93 1013.2
20260507184211 53 185 5.2 11.3 0.12 0.47 0.46 93 1013.2
20260507183716 53 206 5.2 13.0 0.13 0.46 0.46 93 1013.0
20260507183210 53 232 5.2 13.0 0.14 0.46 0.46 93 1013.0
20260507182212 53 213 7.0 12.2 0.16 0.44 0.44 93 1012.9
20260507181707 53 215 7.8 12.2 0.17 0.43 0.43 92 1012.9
20260507180716 53 192 7.0 13.0 0.19 0.41 0.41 92 1012.8
20260507180214 53 223 7.0 13.0 0.19 0.39 0.39 92 1012.8
20260507175718 53 235 7.8 13.0 0.19 0.39 0.39 92 1012.6
20260507175210 53 236 7.8 12.2 0.20 0.38 0.38 92 1012.7
20260507174235 53 226 7.8 11.3 0.19 0.35 0.35 92 1012.7
20260507173212 53 238 6.1 10.4 0.16 0.31 0.31 91 1012.9
20260507172717 53 205 5.2 12.2 0.15 0.30 0.30 91 1012.8
20260507171717 53 234 5.2 13.0 0.11 0.24 0.24 91 1012.9
20260507171219 54 155 6.1 13.0 0.10 0.24 0.24 91 1012.8
20260507170707 54 200 6.1 11.3 0.09 0.21 0.21 91 1012.7
20260507170207 54 227 5.2 7.8 0.08 0.20 0.20 91 1012.5
20260507165217 54 229 4.3 11.3 0.08 0.17 0.17 90 1012.3
20260507164707 55 178 5.2 11.3 0.08 0.17 0.17 90 1012.3
20260507164205 55 223 5.2 11.3 0.09 0.17 0.17 90 1012.3
20260507163220 55 217 6.1 8.7 0.09 0.15 0.15 90 1012.1
20260507162707 55 225 4.3 8.7 0.08 0.14 0.14 89 1012.0
20260507162215 56 213 3.5 7.8 0.09 0.14 0.14 89 1011.9
20260507161720 56 184 4.3 7.8 0.11 0.13 0.13 89 1012.0
20260507161208 56 243 4.3 8.7 0.12 0.13 0.13 88 1011.9
20260507160711 56 242 5.2 8.7 0.11 0.13 0.13 88 1011.8
20260507155717 56 254 5.2 10.4 0.09 0.10 0.10 86 1011.7
20260507155217 57 279 5.2 11.3 0.08 0.09 0.09 85 1011.7
20260507154707 57 270 6.1 13.0 0.06 0.08 0.08 84 1011.6
20260507154211 58 239 5.2 13.0 0.06 0.08 0.08 83 1011.5
20260507153709 58 251 7.0 13.0 0.06 0.07 0.07 82 1011.5
20260507153210 58 254 7.8 13.0 0.05 0.06 0.06 81 1011.4
20260507152716 59 298 6.1 10.4 0.04 0.06 0.06 79 1011.3
20260507152214 60 267 4.3 8.7 0.02 0.04 0.04 79 1011.3
20260507151705 61 296 5.2 8.7 0.01 0.02 0.02 78 1011.2
20260507151211 61 279 6.1 7.8 0.00 0.02 0.02 75 1011.2
20260507150714 61 269 5.2 7.8 0.00 0.02 0.02 72 1011.1
20260507150213 62 259 4.3 7.0 0.00 0.02 0.02 70 1011.0
20260507145713 62 248 3.5 7.0 0.00 0.02 0.02 68 1011.0
20260507145216 62 246 2.6 3.5 0.00 0.02 0.02 68 1010.9
20260507144715 62 263 0.9 2.6 0.00 0.02 0.02 66 1010.9
20260507143714 62 218 0.9 2.6 0.00 0.02 0.02 65 1010.7
20260507143217 63 218 1.7 2.6 0.00 0.02 0.02 66 1010.7
20260507142205 62 234 0.9 1.7 0.00 0.02 0.02 66 1010.8
20260507141718 62 0 0.9 1.7 0.00 0.02 0.02 64 1010.8
20260507140711 62 0 0.9 2.6 0.00 0.02 0.02 64 1010.9
20260507140206 62 0 1.7 2.6 0.00 0.02 0.02 66 1011.0
20260507135719 62 25 1.7 2.6 0.00 0.02 0.02 66 1010.9
20260507135216 62 326 0.9 2.6 0.00 0.02 0.02 65 1010.9
20260507134712 62 194 0.9 5.2 0.00 0.02 0.02 67 1010.9
20260507133210 62 157 2.6 7.8 0.00 0.02 0.02 69 1011.1
20260507132708 62 137 3.5 7.8 0.00 0.02 0.02 71 1011.2
20260507132215 62 137 3.5 7.0 0.01 0.02 0.02 73 1011.2
20260507131707 62 173 2.6 6.1 0.01 0.02 0.02 74 1011.2
20260507131245 61 174 3.5 7.0 0.02 0.02 0.02 75 1011.3
20260507130708 61 178 3.5 7.0 0.02 0.02 0.02 75 1011.4
20260507130216 61 151 3.5 7.0 0.02 0.02 0.02 77 1011.4
20260507125714 61 200 2.6 5.2 0.02 0.02 0.02 77 1011.3
20260507125213 60 190 1.7 3.5 0.02 0.02 0.02 77 1011.4
20260507124706 60 213 1.7 3.5 0.02 0.02 0.02 77 1011.3
20260507124238 60 233 1.7 3.5 0.02 0.02 0.02 77 1011.3
20260507123715 60 236 0.9 6.1 0.02 0.02 0.02 77 1011.4
20260507123210 60 219 1.7 7.8 0.02 0.02 0.02 77 1011.4
20260507122231 60 255 5.2 9.6 0.01 0.01 0.01 76 1011.4
20260507121717 60 251 7.0 9.6 0.01 0.01 0.01 75 1011.5
20260507121211 61 238 7.0 9.6 0.00 0.00 0.00 74 1011.5
20260507120719 62 238 7.0 9.6 0.00 0.00 0.00 73 1011.4
20260507120213 62 246 6.1 9.6 0.00 0.00 0.00 70 1011.4
20260507115713 63 246 4.3 7.8 0.00 0.00 0.00 68 1011.4
20260507114715 64 288 3.5 7.0 0.00 0.00 0.00 62 1011.3
20260507114212 64 315 2.6 7.0 0.00 0.00 0.00 62 1011.2
20260507113717 64 319 3.5 7.8 0.00 0.00 0.00 59 1011.1
20260507113218 64 5 4.3 7.8 0.00 0.00 0.00 57 1011.2
20260507112711 64 31 5.2 9.6 0.00 0.00 0.00 57 1011.1
20260507112207 65 323 4.3 9.6 0.00 0.00 0.00 58 1011.1
20260507111215 65 338 3.5 8.7 0.00 0.00 0.00 54 1011.1
20260507110709 65 17 3.5 9.6 0.00 0.00 0.00 53 1011.1
20260507105720 66 0 5.2 9.6 0.00 0.00 0.00 53 1011.2
20260507105217 66 337 3.5 9.6 0.00 0.00 0.00 53 1011.2
20260507104706 66 24 2.6 7.0 0.00 0.00 0.00 53 1011.2
20260507104210 66 53 2.6 7.8 0.00 0.00 0.00 54 1011.2
20260507103713 65 14 3.5 7.8 0.00 0.00 0.00 53 1011.2
20260507103216 65 22 3.5 7.8 0.00 0.00 0.00 54 1011.3
20260507102208 64 80 2.6 7.0 0.00 0.00 0.00 55 1011.5
20260507101718 64 86 3.5 7.0 0.00 0.00 0.00 56 1011.6
20260507101210 64 96 3.5 7.8 0.00 0.00 0.00 55 1011.5
20260507100710 64 114 3.5 7.8 0.00 0.00 0.00 57 1011.6
20260507100213 64 96 4.3 7.8 0.00 0.00 0.00 58 1011.6
20260507095719 63 88 4.3 7.8 0.00 0.00 0.00 58 1011.5
20260507095215 63 79 5.2 7.8 0.00 0.00 0.00 59 1011.4
20260507094713 63 78 4.3 7.8 0.00 0.00 0.00 60 1011.4
20260507094216 63 108 4.3 9.6 0.00 0.00 0.00 61 1011.4
20260507093709 63 85 5.2 9.6 0.00 0.00 0.00 60 1011.4
20260507093209 63 113 6.1 9.6 0.00 0.00 0.00 60 1011.4
20260507092707 63 108 6.1 9.6 0.00 0.00 0.00 62 1011.4
20260507092207 63 109 6.1 10.4 0.00 0.00 0.00 63 1011.3
20260507091715 63 100 6.1 10.4 0.00 0.00 0.00 64 1011.3
20260507090712 63 130 6.1 9.6 0.00 0.00 0.00 64 1011.4
20260507090206 63 138 6.1 9.6 0.00 0.00 0.00 62 1011.3
20260507085720 63 128 5.2 9.6 0.00 0.00 0.00 61 1011.2
20260507085212 63 142 3.5 9.6 0.00 0.00 0.00 61 1011.1
20260507084209 63 162 4.3 8.7 0.00 0.00 0.00 60 1011.1
20260507083717 63 157 4.3 7.0 0.00 0.00 0.00 61 1011.0
20260507083213 62 150 2.6 8.7 0.00 0.00 0.00 57 1010.9
20260507082719 62 283 1.7 10.4 0.00 0.00 0.00 56 1010.9
20260507082218 62 262 3.5 11.3 0.00 0.00 0.00 56 1010.7
20260507081217 62 162 6.1 11.3 0.00 0.00 0.00 62 1010.6
20260507080718 63 225 6.1 8.7 0.00 0.00 0.00 55 1010.4
20260507080217 63 250 5.2 8.7 0.00 0.00 0.00 53 1010.4
20260507075206 62 267 6.1 8.7 0.00 0.00 0.00 53 1010.4
20260507074716 62 258 5.2 8.7 0.00 0.00 0.00 52 1010.4
20260507074205 62 294 4.3 7.8 0.00 0.00 0.00 54 1010.4
20260507073714 62 261 3.5 7.8 0.00 0.00 0.00 53 1010.4
20260507073221 62 290 3.5 8.7 0.00 0.00 0.00 54 1010.4
20260507071715 62 254 3.5 5.2 0.00 0.00 0.00 53 1010.2
20260507071212 62 248 1.7 3.5 0.00 0.00 0.00 53 1010.0
20260507070710 62 255 0.9 2.6 0.00 0.00 0.00 54 1010.0
20260507070210 62 308 1.7 3.5 0.00 0.00 0.00 54 1010.0
20260507065714 62 235 1.7 5.2 0.00 0.00 0.00 54 1009.9
20260507065210 61 246 1.7 6.1 0.00 0.00 0.00 54 1010.0
20260507064713 61 246 2.6 6.1 0.00 0.00 0.00 54 1009.9
20260507064213 61 253 3.5 6.1 0.00 0.00 0.00 54 1009.9
20260507063711 61 252 3.5 6.1 0.00 0.00 0.00 56 1010.0
20260507063210 61 264 1.7 7.0 0.00 0.00 0.00 56 1009.9
20260507062708 61 238 2.6 7.0 0.00 0.00 0.00 56 1009.8
20260507062208 61 277 4.3 7.0 0.00 0.00 0.00 56 1009.8
20260507061207 61 244 4.3 7.8 0.00 0.00 0.00 56 1009.8
20260507060715 61 261 4.3 7.8 0.00 0.00 0.00 56 1009.8
20260507060220 61 252 2.6 5.2 0.00 0.00 0.00 57 1009.7
20260507055708 61 221 2.6 5.2 0.00 0.00 0.00 57 1009.6
20260507054714 61 209 1.7 3.5 0.00 0.00 0.00 57 1009.5
20260507054221 61 209 1.7 2.6 0.00 0.00 0.00 58 1009.4
20260507053711 61 221 0.9 4.3 0.00 0.00 0.00 59 1009.3
20260507053207 61 180 0.9 4.3 0.00 0.00 0.00 59 1009.2
20260507052716 61 198 1.7 4.3 0.00 0.00 0.00 59 1009.2
20260507052216 61 204 1.7 4.3 0.00 0.00 0.00 59 1009.1
20260507051711 61 203 0.9 3.5 0.00 0.00 0.00 57 1009.1
20260507051207 61 184 1.7 3.5 0.00 0.00 0.00 58 1009.1
20260507050216 61 215 0.9 3.5 0.00 0.00 0.00 60 1008.9
20260507045719 61 155 0.9 4.3 0.00 0.00 0.00 60 1008.9
20260507045219 61 193 0.9 4.3 0.00 0.00 0.00 60 1008.8
20260507044715 61 155 2.6 4.3 0.00 0.00 0.00 59 1008.7
20260507042715 60 107 0.9 7.8 0.00 0.00 0.00 58 1008.4
20260507042216 60 229 1.7 7.8 0.00 0.00 0.00 58 1008.3
20260507041719 60 344 1.7 7.8 0.00 0.00 0.00 57 1008.2
20260507041206 60 248 2.6 7.0 0.00 0.00 0.00 58 1008.0
20260507040709 60 276 2.6 7.0 0.00 0.00 0.00 58 1008.0
20260507035713 60 258 0.9 4.3 0.00 0.00 0.00 59 1007.8
20260507035209 60 295 1.7 4.3 0.00 0.00 0.00 60 1007.7
20260507034710 60 262 1.7 5.2 0.00 0.00 0.00 60 1007.8
20260507032706 60 257 3.5 8.7 0.00 0.00 0.00 60 1007.8
20260507032210 60 278 4.3 8.7 0.00 0.00 0.00 60 1007.8
20260507031714 60 272 4.3 8.7 0.00 0.00 0.00 60 1007.8
20260507031214 60 304 3.5 8.7 0.00 0.00 0.00 61 1007.8
20260507030214 60 297 3.5 8.7 0.00 0.00 0.00 62 1007.6
20260507025715 60 300 3.5 8.7 0.00 0.00 0.00 62 1007.5
20260507025212 60 267 4.3 9.6 0.00 0.00 0.00 63 1007.4
20260507023713 60 325 4.3 9.6 0.00 0.00 0.00 63 1007.5
20260507023219 60 303 4.3 10.4 0.00 0.00 0.00 63 1007.5
20260507022713 60 331 4.3 10.4 0.00 0.00 0.00 63 1007.6
20260507021716 60 339 4.3 7.8 0.00 0.00 0.00 63 1007.5
20260507021217 60 334 4.3 7.8 0.00 0.00 0.00 63 1007.4
20260507020705 60 327 3.5 7.8 0.00 0.00 0.00 63 1007.5
20260507020218 60 338 3.5 10.4 0.00 0.00 0.00 63 1007.5
20260507015711 60 347 4.3 10.4 0.00 0.00 0.00 63 1007.5
20260507015217 60 344 5.2 10.4 0.00 0.00 0.00 63 1007.4
20260507014710 60 294 6.1 10.4 0.00 0.00 0.00 63 1007.4
20260507014217 60 315 5.2 10.4 0.00 0.00 0.00 63 1007.4
20260507013709 60 345 5.2 10.4 0.00 0.00 0.00 63 1007.3
20260507013211 60 295 3.5 10.4 0.00 0.00 0.00 63 1007.3
20260507012706 60 355 4.3 13.0 0.00 0.00 0.00 63 1007.2
20260507012209 60 311 6.1 13.0 0.00 0.00 0.00 63 1007.3
20260507011210 60 315 6.1 12.2 0.00 0.00 0.00 63 1007.3
20260507010218 61 341 7.0 13.0 0.00 0.00 0.00 64 1007.1
20260507005706 61 320 7.0 13.0 0.00 0.00 0.00 64 1007.0
20260507005212 61 343 7.0 12.2 0.00 0.00 0.00 64 1007.0
20260507004709 61 340 7.0 13.0 0.00 0.00 0.00 64 1007.0
20260507004213 61 338 7.0 13.9 0.00 0.00 0.00 65 1006.9
20260507003712 61 313 7.0 13.9 0.00 0.00 0.00 65 1006.9
20260507003218 61 330 7.0 13.9 0.00 0.00 0.00 66 1006.9
20260507002715 61 323 7.0 12.2 0.00 0.00 0.00 67 1006.9
20260507002212 61 311 6.1 12.2 0.00 0.00 0.00 68 1006.9
20260507001708 61 303 4.3 8.7 0.00 0.00 0.00 68 1006.8
20260507001207 61 303 4.3 10.4 0.00 0.00 0.00 68 1006.8
20260507000709 61 11 6.1 10.4 0.00 0.00 0.00 68 1006.8
20260507000208 61 12 6.1 10.4 0.00 0.00 0.00 68 1006.8
20260506235719 61 13 5.2 10.4 0.00 0.00 0.00 68 1006.8
20260506235217 61 337 3.5 10.4 0.00 0.00 0.00 68 1006.8
20260506234715 61 323 1.7 7.0 0.00 0.00 0.00 66 1006.7
20260506234218 61 15 2.6 7.0 0.00 0.00 0.00 66 1006.7
20260506233709 61 0 2.6 7.0 0.00 0.00 0.00 66 1006.7
20260506233218 61 330 3.5 7.8 0.00 0.00 0.00 66 1006.6
20260506232708 62 30 4.3 7.8 0.00 0.00 0.00 65 1006.2
20260506232215 62 15 3.5 6.1 0.00 0.00 0.00 65 1006.1
20260506230718 62 55 3.5 6.1 0.00 0.00 0.00 63 1006.1
20260506230209 62 49 2.6 4.3 0.00 0.00 0.00 63 1006.0
20260506225709 62 10 1.7 4.3 0.00 0.00 0.00 62 1006.0
20260506225209 62 5 1.7 7.8 0.00 0.00 0.00 62 1005.9
20260506224708 62 355 2.6 7.8 0.00 0.00 0.00 62 1005.8
20260506224210 62 332 2.6 7.8 0.00 0.00 0.00 62 1005.7
20260506223210 62 205 1.7 3.5 0.00 0.00 0.00 63 1005.4
20260506222209 63 180 1.7 5.2 0.00 0.00 0.00 63 1005.2
20260506221719 63 183 1.7 7.8 0.00 0.00 0.00 63 1005.1
20260506221214 63 178 2.6 7.8 0.00 0.00 0.00 62 1005.1
20260506220710 63 212 4.3 8.7 0.00 0.00 0.00 62 1005.0
20260506220214 63 232 5.2 8.7 0.00 0.00 0.00 62 1004.9
20260506215709 63 225 5.2 8.7 0.00 0.00 0.00 63 1004.8
20260506215211 63 225 3.5 7.0 0.00 0.00 0.00 63 1004.7
20260506214718 63 204 2.6 7.0 0.00 0.00 0.00 63 1004.6
20260506214219 63 185 3.5 7.0 0.00 0.00 0.00 63 1004.6
20260506213721 63 186 3.5 6.1 0.00 0.00 0.00 63 1004.5
20260506213218 63 192 3.5 9.6 0.00 0.00 0.00 63 1004.4
20260506212708 63 204 4.3 9.6 0.00 0.00 0.00 63 1004.2
20260506212205 64 160 4.3 9.6 0.00 0.00 0.00 63 1004.3
20260506211711 64 225 4.3 8.7 0.00 0.00 0.00 62 1004.3
20260506211216 64 197 4.3 10.4 0.00 0.00 0.00 63 1004.3
20260506210711 64 165 5.2 10.4 0.00 0.00 0.00 63 1004.2
20260506210216 64 194 5.2 10.4 0.00 0.00 0.00 63 1004.1
20260506205712 64 205 5.2 11.3 0.00 0.00 0.00 63 1003.9
20260506205205 64 219 6.1 14.8 0.00 0.00 0.00 63 1004.0
20260506204713 64 140 6.1 14.8 0.00 0.00 0.00 63 1003.9
20260506204213 64 136 7.0 14.8 0.00 0.00 0.00 63 1003.7
20260506203216 64 140 7.0 13.0 0.00 0.00 0.00 63 1003.6
20260506202718 64 184 7.0 16.5 0.00 0.00 0.00 63 1003.7
20260506202221 64 194 7.0 16.5 0.00 0.00 0.00 63 1003.6
20260506201719 64 211 7.0 16.5 0.00 0.00 0.00 62 1003.6
20260506201216 65 190 7.0 17.4 0.00 0.00 0.00 62 1003.6
20260506200718 65 173 7.0 20.0 0.00 0.00 0.00 62 1003.5
20260506200215 65 180 7.8 20.0 0.00 0.00 0.00 62 1003.5
20260506195216 65 207 8.7 23.5 0.00 0.00 0.00 62 1003.2
20260506194710 65 223 8.7 13.9 0.00 0.00 0.00 62 1003.0
20260506194214 65 163 8.7 13.0 0.00 0.00 0.00 62 1003.1
20260506193705 65 199 7.0 16.5 0.00 0.00 0.00 62 1003.3
20260506192714 65 165 7.8 16.5 0.00 0.00 0.00 61 1003.4
20260506192207 66 165 7.8 13.9 0.00 0.00 0.00 61 1003.2
20260506191714 66 205 6.1 13.9 0.00 0.00 0.00 61 1003.3
20260506191208 66 183 6.1 16.5 0.00 0.00 0.00 60 1003.4
20260506190717 66 183 7.0 16.5 0.00 0.00 0.00 60 1003.3